Regional Weather Roundup
Issued by NWS

Home | Current Version | Previous Version | Graphics & Text | Print | Product List | Glossary On
Versions: 1 2 3 4 5 6 7 8 9 10 11 12 13 14 15 16 17 18 19 20 21 22 23 24 25 26 27 28 29 30 31 32 33 34 35 36 37 38 39 40 41 42 43 44 45 46 47 48 49 50
000
ASUS43 KDMX 231401
RWRIA

WEATHER ROUNDUP FOR IOWA
NATIONAL WEATHER SERVICE DES MOINES IA
900 AM CDT THU MAR 23 2017

NOTE: "FAIR" INDICATES FEW OR NO CLOUDS BELOW 12,000 FEET WITH NO
SIGNIFICANT WEATHER AND/OR OBSTRUCTIONS TO VISIBILITY.

* - THESE STATIONS ARE NOT NWS STATIONS...THUS NOT UNDER NWS
QUALITY CONTROL.  THEY ALSO DO NOT REPORT WEATHER SUCH
AS PRECIPITATION OR FOG.

IAZ001>003-012>014-020>022-031>034-043>046-231500-
   NORTHWEST IOWA

CITY           SKY/WX    TMP DP  RH WIND       PRES   REMARKS
CARROLL *      CLOUDY    43  25  49 SE17      30.02F
CHEROKEE *     CLOUDY    41  24  49 SE10G16   29.98F
DENISON *      CLOUDY    45  27  49 SE14G22   29.97F
LE MARS *      PTSUNNY   43  25  49 SE16G25   29.94F
ORANGE CITY *  MOSUNNY   41  25  52 SE10G16   29.95F
SHELDON *      MOSUNNY   39  27  60 SE23      29.94F WCI  29
SIOUX CITY     CLOUDY    43  26  51 SE17      29.94F
SPENCER        PTSUNNY   39  22  50 SE18G25   30.01F WCI  30
STORM LAKE *   CLOUDY    39  21  48 SE22      29.98F WCI  29
$$

IAZ055>058-069>071-079>083-090>094-231500-
   SOUTHWEST IOWA

CITY           SKY/WX    TMP DP  RH WIND       PRES   REMARKS
ATLANTIC *     CLOUDY    46  27  46 SE10      30.02F
AUDUBON *      CLOUDY    45  27  49 SE14      30.03F
CLARINDA *     CLOUDY    48  34  57 S13       30.05F
COUNCIL BLFS * CLOUDY    46  32  57 S18       29.98F
CRESTON *      CLOUDY    43  32  65 SE17G24   30.07S
HARLAN  *      CLOUDY    45  27  49 SE17G24   30.02F
LAMONI         CLOUDY    43  30  60 SE20      30.08F
RED OAK *      CLOUDY    46  34  61 SE12G18   30.02F
SHENANDOAH *   CLOUDY    48  34  57 SE14      30.02F
$$

IAZ047>049-059>061-072>074-084-231500-
   CENTRAL IOWA

CITY           SKY/WX    TMP DP  RH WIND       PRES   REMARKS
AMES           CLOUDY    39  24  55 SE14      30.11F WCI  31
ANKENY *       CLOUDY    41  23  48 SE15G22   30.13F
BOONE *        CLOUDY    39  23  52 SE17G28   30.08F WCI  30
CHARITON *     CLOUDY    43  30  61 SE16G22   30.11F
DES MOINES     CLOUDY    43  25  49 SE17      30.12F
GRINNELL*      CLOUDY    38  22  54 SE17G24   30.17F WCI  28
MARSHALLTOWN   CLOUDY    37  22  54 SE18G24   30.15F WCI  27
NEWTON *       CLOUDY    37  23  56 SE16G23   30.14S WCI  28
PELLA *        CLOUDY    40  23  50 SE14G21   30.16F WCI  32
PERRY *        CLOUDY    41  19  41 SE21      30.06F
$$

IAZ004>006-015-016-023>025-035-036-231500-
   NORTH CENTRAL IOWA

CITY           SKY/WX    TMP DP  RH WIND       PRES   REMARKS
ALGONA *       CLOUDY    37  25  60 SE23G30   30.05F WCI  26
CLARION *      CLOUDY    37  25  60 SE20G26   30.08F WCI  27
ESTHERVILLE    CLOUDY    35  24  64 SE21      30.02F WCI  24
FORT DODGE *   CLOUDY    39  19  45 SE12G23   30.08F WCI  32
MASON CITY     CLOUDY    34  24  67 SE20G25   30.13F WCI  23
FOREST CITY *  CLOUDY    34  27  75 SE18G24   30.10S WCI  23
WEBSTER CITY * CLOUDY    39  23  52 SE21G29   30.07S WCI  29
IOWA FALLS *   CLOUDY    37  25  60 SE17G24   30.13F WCI  28
$$

IAZ007>011-017>019-026>030-037>042-050>054-066-231500-
   NORTHEAST IOWA

CITY           SKY/WX    TMP DP  RH WIND       PRES   REMARKS
CEDAR RAPIDS   CLOUDY    37  23  56 SE17      30.21F WCI  27
CHARLES CITY * CLOUDY    34  21  60 SE20G28   30.15F WCI  22
CLINTON *      CLOUDY    36  25  64 SE14      30.30F WCI  27
DECORAH *      CLOUDY    34  21  60 SE13G21   30.18F WCI  25
DUBUQUE        CLOUDY    34  23  64 SE15      30.26F WCI  24
MONTICELLO *   CLOUDY    36  23  60 SE17G23   30.24F WCI  25
OELWEIN *      CLOUDY    34  25  69 SE22      30.19F WCI  22
WATERLOO       CLOUDY    36  22  56 SE15      30.18F WCI  27
$$

IAZ064-065-067-068-078-231500-
   EAST CENTRAL IOWA

CITY           SKY/WX    TMP DP  RH WIND       PRES   REMARKS
DAVENPORT      CLOUDY    36  23  59 SE15      30.28F WCI  27
IOWA CITY      CLOUDY    39  23  52 SE14      30.25F WCI  31
MUSCATINE *    CLOUDY    39  23  52 SE14G21   30.27F WCI  31
QUAD CITIES    CLOUDY    37  22  54 SE14      30.29F WCI  28
$$

IAZ062-063-075>077-085>089-095>099-231500-
   SOUTHEAST IOWA

CITY           SKY/WX    TMP DP  RH WIND       PRES   REMARKS
BURLINGTON     CLOUDY    36  29  75 SE12G22   30.25F WCI  28
FAIRFIELD *    CLOUDY    39  23  52 SE17G23   30.21S WCI  30
FORT MADISON * CLOUDY    37  27  65 SE12G20   30.26S WCI  30
KEOKUK *       CLOUDY    37  28  70 SE15G21   30.25S WCI  28
OSKALOOSA *    CLOUDY    39  24  55 SE18      30.18F WCI  29
CENTERVILLE *  CLOUDY    39  28  65 SE13G23   30.15F WCI  32
OTTUMWA        CLOUDY    40  22  48 SE15      30.18S WCI  32
WASHINGTON *   CLOUDY    39  23  52 SE16      30.24F WCI  30
$$

ABBREVIATIONS USED IN REMARKS
   TC - TEMPERATURES IN CELSIUS
  WCI - WIND CHILL INDEX
   HX - HEAT INDEX
  VSB - VISIBILITY
$$





USA.gov is the U.S. government's official web portal to all federal, state and local government web resources and services.